Location: N�rnberg
(49.4489°N, 11.0797°E)
Time: 18:00:51
(UTC+01:00)

ISS - Visible Passes

Search period start: 20 November 2017 00:00
Search period end: 30 November 2017 00:00
Orbit: 402 x 407 km, 51.6° (Epoch: 21 November)

Date Brightness Start Highest point End Pass type
(mag) Time Alt. Az. Time Alt. Az. Time Alt. Az.
27 Nov -0.8 19:07:26 10° SSW 19:07:38 11° SSW 19:07:38 11° SSW visible
28 Nov -1.9 18:15:41 10° S 18:17:35 19° SSE 18:17:35 19° SSE visible
29 Nov -1.4 17:24:33 10° SSE 17:25:59 12° SE 17:27:25 10° ESE visible
29 Nov -1.6 18:58:40 10° SW 19:00:07 23° SW 19:00:07 23° SW visible
